Weather in Cienfuegos

Cuba     22°08′50″N   80°26′34″W
temp.,
°C
wind,
m/s
gust,
m/s
humid.,
%
clouds,
%
prec.,
mm/h
press.,
hPa
HPBL,
m
24 september, fri
fri2423:00+24nne3491100 0.1 101482
02:00+24ne239051 0.1 101255
05:00+23ene239229 0.0 101258
08:00+24ene239018 0.0 101394
11:00+30ese11676 0.0 1014816
14:00+33ne015214 0.1 10131858
17:00+31sw436470 0.8 1012772
20:00+26nne118284 2.8 101411
25 september, sat
sat2523:00+25ene349038 0.2 101577
02:00+24ene35935 0.2 101496
05:00+24ene22935 0.0 101341
08:00+24ne22905 0.0 101477
11:00+30ne22650 0.0 1015789
14:00+33nne22523 0.0 10141610
17:00+32sw325436 0.2 1013968
20:00+26nne118310 3.3 101424
26 september, sun
sun2623:00+24ene34905 0.0 101685
02:00+24ene34920 0.0 101584
05:00+24ene23931 0.1 101551
08:00+25ne22897 0.1 101672
11:00+30ne22665 0.0 1016829
14:00+33nne335345 0.0 10151793
17:00+30nne576488 0.4 1013347
20:00+25nne498869 1.6 1015210
27 september, mon
mon2723:00+24ene37932 0.1 1016173
02:00+24ene36940 0.1 1015136
05:00+23ene35951 0.0 1014120
08:00+24ene25920 0.0 1015162
11:00+30ene44667 0.0 10161145
14:00+32ene435341 0.2 10141813
17:00+29nne577056 0.9 1013475
20:00+25ne498796 1.8 1014246
28 september, tue
tue2823:00+24ne399132 0.0 1015218
02:00+23ne36927 0.0 1014145
05:00+23ne36921 0.0 1013120
08:00+23ne36921 0.0 1014210
11:00+29ene446727 0.0 10151113
14:00+32nne435599 0.4 10131688
17:00+29nne44715 3.4 1012969
20:00+24nne37896 5.2 1013159